Location: New Town
(33.2710°N, 90.7534°W)
Time: 03:47:08
(UTC+00:00)

ISS - Pass Details

Date: 27 April 2021
Orbit: 417 x 422 km, 51.6° (Epoch: 18 May)

Event Time Altitude Azimuth Distance (km) Brightness Sun altitude
Exits shadow 09:12:43 39° 63° (ENE) 646 -2.4 -24.2°
Drops below altitude 10° 09:14:59 10° 51° (NE) 1,501 0.1 -23.9°
Sets 09:17:06 0° 49° (NE) 2,369 1.5 -23.5°
